Time,TemperatureF,DewpointF,PressureIn,WindDirection,WindDirectionDegrees,WindSpeedMPH,WindSpeedGustMPH,Humidity,HourlyPrecipIn,Conditions,Clouds,dailyrainin,SoftwareType,DateUTC
2013-11-27 00:14:00,47.3,47.0,29.73,NNE,22,9.0,14.0,97,0.13,,,0.03,weatherlink.com 1.10,2013-11-27 05:14:00,
2013-11-27 00:29:00,47.9,47.0,29.69,NE,54,13.0,14.0,97,0.15,,,0.09,weatherlink.com 1.10,2013-11-27 05:29:00,
2013-11-27 00:44:00,51.7,51.0,29.66,NE,56,7.0,11.0,98,0.16,,,0.13,weatherlink.com 1.10,2013-11-27 05:44:00,
2013-11-27 00:59:00,53.1,53.0,29.65,ENE,77,8.0,15.0,98,0.21,,,0.20,weatherlink.com 1.10,2013-11-27 05:59:00,
2013-11-27 01:14:00,53.8,53.0,29.62,ESE,122,6.0,15.0,98,0.24,,,0.27,weatherlink.com 1.10,2013-11-27 06:14:00,
2013-11-27 01:29:00,55.3,55.0,29.60,SSE,151,9.0,26.0,97,0.21,,,0.30,weatherlink.com 1.10,2013-11-27 06:29:00,
2013-11-27 01:44:00,56.3,55.0,29.60,East,84,14.0,23.0,96,0.23,,,0.37,weatherlink.com 1.10,2013-11-27 06:44:00,
2013-11-27 01:59:00,56.6,56.0,29.59,SE,129,13.0,28.0,96,0.20,,,0.40,weatherlink.com 1.10,2013-11-27 06:59:00,
2013-11-27 02:14:00,56.8,56.0,29.54,East,90,13.0,22.0,96,0.20,,,0.48,weatherlink.com 1.10,2013-11-27 07:14:00,
2013-11-27 02:29:00,56.9,56.0,29.54,SE,136,9.0,16.0,96,0.23,,,0.53,weatherlink.com 1.10,2013-11-27 07:29:00,
2013-11-27 02:44:00,57.2,56.0,29.49,East,96,9.0,20.0,96,0.23,,,0.60,weatherlink.com 1.10,2013-11-27 07:44:00,
2013-11-27 02:59:00,57.5,56.0,29.47,East,96,14.0,20.0,96,0.28,,,0.68,weatherlink.com 1.10,2013-11-27 07:59:00,
2013-11-27 03:14:00,58.0,57.0,29.43,ESE,110,13.0,19.0,97,0.39,,,0.87,weatherlink.com 1.10,2013-11-27 08:14:00,
2013-11-27 03:29:00,58.8,58.0,29.42,SSE,151,6.0,19.0,97,0.44,,,0.97,weatherlink.com 1.10,2013-11-27 08:29:00,
2013-11-27 03:44:00,58.9,58.0,29.40,SSE,150,10.0,25.0,97,0.42,,,1.02,weatherlink.com 1.10,2013-11-27 08:44:00,
2013-11-27 03:59:00,59.4,59.0,29.38,SSE,154,16.0,39.0,97,0.33,,,1.02,weatherlink.com 1.10,2013-11-27 08:59:00,
2013-11-27 04:14:00,59.9,59.0,29.36,SE,136,26.0,32.0,97,0.14,,,1.02,weatherlink.com 1.10,2013-11-27 09:14:00,
2013-11-27 04:30:00,60.0,59.0,29.36,SSE,167,12.0,34.0,96,0.04,,,1.02,weatherlink.com 1.10,2013-11-27 09:30:00,
2013-11-27 04:45:00,60.4,60.0,29.34,SSE,151,10.0,31.0,97,0.00,,,1.02,weatherlink.com 1.10,2013-11-27 09:45:00,
2013-11-27 05:00:00,59.7,59.0,29.35,SE,139,17.0,27.0,96,0.00,,,1.02,weatherlink.com 1.10,2013-11-27 10:00:00,
2013-11-27 05:15:00,60.1,59.0,29.34,SSE,164,12.0,29.0,97,0.00,,,1.02,weatherlink.com 1.10,2013-11-27 10:15:00,
2013-11-27 05:30:00,60.3,60.0,29.34,South,177,12.0,28.0,97,0.00,,,1.02,weatherlink.com 1.10,2013-11-27 10:30:00,
2013-11-27 05:45:00,60.1,59.0,29.33,SE,141,13.0,26.0,96,0.01,,,1.03,weatherlink.com 1.10,2013-11-27 10:45:00,
2013-11-27 06:00:00,58.3,57.0,29.33,SSW,205,17.0,27.0,95,0.03,,,1.05,weatherlink.com 1.10,2013-11-27 11:00:00,
2013-11-27 06:15:00,58.4,58.0,29.33,South,174,7.0,20.0,97,0.05,,,1.07,weatherlink.com 1.10,2013-11-27 11:15:00,
2013-11-27 06:30:00,58.8,58.0,29.32,SSE,153,21.0,25.0,97,0.05,,,1.07,weatherlink.com 1.10,2013-11-27 11:30:00,
2013-11-27 06:45:00,58.9,58.0,29.32,SSW,213,9.0,25.0,97,0.04,,,1.07,weatherlink.com 1.10,2013-11-27 11:45:00,
2013-11-27 07:00:00,57.6,57.0,29.33,SSW,211,16.0,21.0,96,0.02,,,1.07,weatherlink.com 1.10,2013-11-27 12:00:00,
2013-11-27 07:15:00,56.8,56.0,29.33,SSW,203,9.0,18.0,96,0.00,,,1.07,weatherlink.com 1.10,2013-11-27 12:15:00,
2013-11-27 07:30:00,57.2,57.0,29.32,SSE,167,1.0,8.0,98,0.01,,,1.08,weatherlink.com 1.10,2013-11-27 12:30:00,
2013-11-27 07:45:00,57.3,57.0,29.33,SE,139,4.0,9.0,97,0.03,,,1.10,weatherlink.com 1.10,2013-11-27 12:45:00,
2013-11-27 08:00:00,58.0,58.0,29.32,SE,136,4.0,8.0,98,0.07,,,1.14,weatherlink.com 1.10,2013-11-27 13:00:00,
2013-11-27 08:15:00,57.2,56.0,29.33,WSW,258,5.0,8.0,94,0.11,,,1.18,weatherlink.com 1.10,2013-11-27 13:15:00,
2013-11-27 08:30:00,56.9,56.0,29.33,South,170,3.0,5.0,98,0.11,,,1.19,weatherlink.com 1.10,2013-11-27 13:30:00,
2013-11-27 08:45:00,58.0,58.0,29.33,SSW,211,8.0,9.0,98,0.09,,,1.19,weatherlink.com 1.10,2013-11-27 13:45:00,
2013-11-27 09:00:00,56.7,56.0,29.35,WSW,238,11.0,16.0,98,0.06,,,1.20,weatherlink.com 1.10,2013-11-27 14:00:00,
2013-11-27 09:15:00,56.9,56.0,29.34,WSW,257,11.0,17.0,96,0.04,,,1.22,weatherlink.com 1.10,2013-11-27 14:15:00,
2013-11-27 09:30:00,55.4,54.0,29.34,WNW,285,8.0,15.0,94,0.05,,,1.24,weatherlink.com 1.10,2013-11-27 14:30:00,
2013-11-27 09:45:00,54.5,53.0,29.32,NW,321,5.0,6.0,95,0.07,,,1.26,weatherlink.com 1.10,2013-11-27 14:45:00,
2013-11-27 10:00:00,52.4,51.0,29.33,West,274,7.0,9.0,93,0.07,,,1.27,weatherlink.com 1.10,2013-11-27 15:00:00,
2013-11-27 10:15:00,51.9,50.0,29.34,West,279,6.0,10.0,94,0.06,,,1.28,weatherlink.com 1.10,2013-11-27 15:15:00,
2013-11-27 10:30:00,50.9,48.0,29.33,WNW,300,9.0,18.0,91,0.06,,,1.30,weatherlink.com 1.10,2013-11-27 15:30:00,
2013-11-27 10:45:00,50.0,47.0,29.32,West,281,11.0,20.0,90,0.04,,,1.30,weatherlink.com 1.10,2013-11-27 15:45:00,
2013-11-27 11:00:00,48.7,46.0,29.31,NW,304,26.0,26.0,89,0.03,,,1.30,weatherlink.com 1.10,2013-11-27 16:00:00,
2013-11-27 11:15:00,47.7,44.0,29.30,WNW,290,8.0,19.0,88,0.02,,,1.30,weatherlink.com 1.10,2013-11-27 16:15:00,
2013-11-27 11:30:00,46.9,44.0,29.32,West,278,15.0,18.0,88,0.00,,,1.30,weatherlink.com 1.10,2013-11-27 16:30:00,
2013-11-27 11:45:00,46.2,43.0,29.32,NW,305,8.0,17.0,87,0.00,,,1.30,weatherlink.com 1.10,2013-11-27 16:45:00,
2013-11-27 12:00:00,45.8,42.0,29.32,WNW,290,10.0,19.0,87,0.01,,,1.31,weatherlink.com 1.10,2013-11-27 17:00:00,
2013-11-27 12:15:00,45.6,42.0,29.32,WNW,287,8.0,18.0,86,0.01,,,1.31,weatherlink.com 1.10,2013-11-27 17:15:00,
2013-11-27 12:30:00,45.3,41.0,29.33,WNW,293,10.0,18.0,85,0.01,,,1.31,weatherlink.com 1.10,2013-11-27 17:30:00,
2013-11-27 12:45:00,44.9,41.0,29.32,WNW,300,7.0,16.0,85,0.01,,,1.31,weatherlink.com 1.10,2013-11-27 17:45:00,
2013-11-27 13:00:00,44.6,40.0,29.31,NW,313,13.0,15.0,84,0.00,,,1.31,weatherlink.com 1.10,2013-11-27 18:00:00,
2013-11-27 13:15:00,44.5,40.0,29.31,NW,306,10.0,15.0,84,0.00,,,1.31,weatherlink.com 1.10,2013-11-27 18:15:00,
2013-11-27 13:30:00,44.1,40.0,29.32,WNW,285,12.0,16.0,84,0.00,,,1.31,weatherlink.com 1.10,2013-11-27 18:30:00,
2013-11-27 13:45:00,43.9,39.0,29.34,WNW,288,8.0,15.0,84,0.00,,,1.31,weatherlink.com 1.10,2013-11-27 18:45:00,
2013-11-27 14:00:00,43.4,40.0,29.34,West,281,12.0,14.0,86,0.02,,,1.33,weatherlink.com 1.10,2013-11-27 19:00:00,
2013-11-27 14:15:00,42.8,39.0,29.31,NW,322,6.0,17.0,87,0.03,,,1.34,weatherlink.com 1.10,2013-11-27 19:15:00,
2013-11-27 14:30:00,42.5,39.0,29.29,NW,309,8.0,14.0,88,0.04,,,1.35,weatherlink.com 1.10,2013-11-27 19:30:00,
2013-11-27 14:45:00,42.5,40.0,29.32,WNW,291,16.0,19.0,89,0.04,,,1.35,weatherlink.com 1.10,2013-11-27 19:45:00,
2013-11-27 15:00:00,42.2,39.0,29.30,NW,317,8.0,16.0,88,0.03,,,1.36,weatherlink.com 1.10,2013-11-27 20:00:00,
2013-11-27 15:15:00,42.0,39.0,29.32,WNW,301,10.0,15.0,88,0.03,,,1.37,weatherlink.com 1.10,2013-11-27 20:15:00,
2013-11-27 15:30:00,42.1,39.0,29.34,WNW,283,9.0,15.0,89,0.03,,,1.38,weatherlink.com 1.10,2013-11-27 20:30:00,
2013-11-27 15:45:00,41.5,38.0,29.33,WNW,302,5.0,17.0,88,0.06,,,1.41,weatherlink.com 1.10,2013-11-27 20:45:00,
2013-11-27 16:00:00,41.3,38.0,29.32,NW,309,10.0,16.0,88,0.06,,,1.42,weatherlink.com 1.10,2013-11-27 21:00:00,
2013-11-27 16:15:00,41.2,38.0,29.31,WNW,302,16.0,16.0,88,0.06,,,1.43,weatherlink.com 1.10,2013-11-27 21:15:00,
2013-11-27 16:30:00,41.2,38.0,29.30,NNW,328,14.0,16.0,87,0.05,,,1.43,weatherlink.com 1.10,2013-11-27 21:30:00,
2013-11-27 16:45:00,40.8,38.0,29.29,NNW,341,14.0,18.0,88,0.03,,,1.44,weatherlink.com 1.10,2013-11-27 21:45:00,
2013-11-27 17:00:00,40.5,37.0,29.32,WNW,299,11.0,21.0,88,0.03,,,1.45,weatherlink.com 1.10,2013-11-27 22:00:00,
2013-11-27 17:15:00,40.5,37.0,29.32,WNW,284,12.0,21.0,86,0.02,,,1.45,weatherlink.com 1.10,2013-11-27 22:15:00,
2013-11-27 17:30:00,40.3,37.0,29.35,NW,309,20.0,28.0,86,0.02,,,1.45,weatherlink.com 1.10,2013-11-27 22:30:00,
2013-11-27 17:45:00,40.1,36.0,29.37,WNW,291,22.0,30.0,84,0.01,,,1.45,weatherlink.com 1.10,2013-11-27 22:45:00,
2013-11-27 18:00:00,39.9,36.0,29.41,WNW,299,21.0,25.0,84,0.00,,,1.45,weatherlink.com 1.10,2013-11-27 23:00:00,
2013-11-27 18:15:00,39.3,36.0,29.42,NW,312,16.0,26.0,87,0.00,,,1.45,weatherlink.com 1.10,2013-11-27 23:15:00,
2013-11-27 18:30:00,38.8,35.0,29.44,WNW,299,19.0,27.0,87,0.00,,,1.45,weatherlink.com 1.10,2013-11-27 23:30:00,
2013-11-27 18:45:00,38.7,35.0,29.45,WNW,301,20.0,22.0,86,0.00,,,1.45,weatherlink.com 1.10,2013-11-27 23:45:00,
2013-11-27 19:00:00,38.4,35.0,29.46,WNW,285,14.0,23.0,87,0.00,,,1.45,weatherlink.com 1.10,2013-11-28 00:00:00,
2013-11-27 19:15:00,38.5,35.0,29.47,WNW,286,9.0,17.0,87,0.00,,,1.45,weatherlink.com 1.10,2013-11-28 00:15:00,
2013-11-27 19:30:00,39.0,35.0,29.47,WNW,298,12.0,19.0,85,0.00,,,1.45,weatherlink.com 1.10,2013-11-28 00:30:00,
2013-11-27 19:45:00,39.5,35.0,29.48,WNW,290,18.0,20.0,83,0.00,,,1.45,weatherlink.com 1.10,2013-11-28 00:45:00,
2013-11-27 20:00:00,39.6,34.0,29.48,WNW,300,13.0,20.0,81,0.00,,,1.45,weatherlink.com 1.10,2013-11-28 01:00:00,
2013-11-27 20:15:00,39.7,34.0,29.49,WNW,283,23.0,23.0,80,0.00,,,1.45,weatherlink.com 1.10,2013-11-28 01:15:00,
2013-11-27 20:30:00,39.7,33.0,29.50,West,278,12.0,21.0,76,0.00,,,1.45,weatherlink.com 1.10,2013-11-28 01:30:00,
2013-11-27 20:45:00,39.7,32.0,29.51,WNW,296,17.0,26.0,74,0.00,,,1.45,weatherlink.com 1.10,2013-11-28 01:45:00,
2013-11-27 21:00:00,39.4,32.0,29.51,WNW,285,12.0,23.0,75,0.00,,,1.45,weatherlink.com 1.10,2013-11-28 02:00:00,
2013-11-27 21:16:00,38.8,30.0,29.52,WNW,288,16.0,33.0,72,0.00,,,1.45,weatherlink.com 1.10,2013-11-28 02:16:00,
2013-11-27 21:31:00,38.3,29.0,29.53,WNW,289,25.0,34.0,70,0.00,,,1.45,weatherlink.com 1.10,2013-11-28 02:31:00,
2013-11-27 21:46:00,38.0,29.0,29.56,West,273,22.0,30.0,69,0.00,,,1.45,weatherlink.com 1.10,2013-11-28 02:46:00,
2013-11-27 22:01:00,37.5,27.0,29.57,West,280,21.0,36.0,65,0.00,,,1.45,weatherlink.com 1.10,2013-11-28 03:01:00,
2013-11-27 22:16:00,37.2,26.0,29.58,WNW,285,18.0,32.0,63,0.00,,,1.45,weatherlink.com 1.10,2013-11-28 03:16:00,
2013-11-27 22:31:00,37.0,25.0,29.60,WNW,286,27.0,36.0,63,0.00,,,1.45,weatherlink.com 1.10,2013-11-28 03:31:00,
2013-11-27 22:46:00,36.8,25.0,29.62,WNW,289,23.0,30.0,63,0.00,,,1.45,weatherlink.com 1.10,2013-11-28 03:46:00,
2013-11-27 23:01:00,36.7,24.0,29.64,West,273,17.0,32.0,61,0.00,,,1.45,weatherlink.com 1.10,2013-11-28 04:01:00,
2013-11-27 23:16:00,36.4,23.0,29.65,West,276,20.0,32.0,59,0.00,,,1.45,weatherlink.com 1.10,2013-11-28 04:16:00,
2013-11-27 23:31:00,36.1,23.0,29.66,West,279,16.0,32.0,60,0.00,,,1.45,weatherlink.com 1.10,2013-11-28 04:31:00,
2013-11-27 23:46:00,36.0,24.0,29.67,WNW,288,22.0,31.0,61,0.00,,,1.45,weatherlink.com 1.10,2013-11-28 04:46:00,